Location: Miles
(41.4492°N, 81.6087°W)
Time: 18:07:36
(UTC+00:00)

Transit 2A - Pass Details

Date: 20 September 2024
Orbit: 590 x 960 km, 66.7° (Epoch: 05 October)

Event Time Altitude Azimuth Distance (km) Brightness Sun altitude
Rises 06:59:44 0° 333° (NNW) 3,635 9.8 -42.0°
Reaches altitude 10° 07:02:29 10° 340° (NNW) 2,663 9.1 -41.7°
Enters shadow 07:03:15 14° 343° (NNW) 2,403 8.8 -41.6°
Maximum altitude 07:08:27 45° 52° (NE) 1,209 - -41.1°
Drops below altitude 10° 07:13:58 10° 125° (SE) 2,466 - -40.4°
Sets 07:16:25 0° 131° (SE) 3,341 - -40.1°
